User: anonymous   Login
Location: ?
(35.4214°N, 139.3011°E)
Time: 23:14:28
(UTC+00:00)
Language:

ATLAS 2AS CENTAUR R/B - Orbit

View from above orbital plane
View from above orbital plane
View from above satellite
View from above satellite

Ground track
Ground track

The orbit data is extracted from the following two-line orbital elements,

1 28096U 03054B   20270.77745461 0.00000000  00000-0  00000-0 0    02
2 28096  63.6758 271.1855 0223320 226.1616 133.8384 13.40863965    02
Epoch (UTC): 26 September 2020 18:39:32
Eccentricity: 0.0223320
inclination: 63.6758°
perigee height: 939 km
apogee height: 1273 km
right ascension of ascending node: 271.1855°
argument of perigee: 226.1616°
revolutions per day: 13.40863965
mean anomaly at epoch: 133.8384°
orbit number at epoch: 0

The dashed part of the orbit path shows where the satellite is in the earth's shadow,  

DLR